[[{"header":{"parameterUnit":"m.s-1","parameterCategory":1,"la1":30.2991,"la2":30.254,"lo1":-89.0895,"lo2":-89.0444,"dy":0.0017,"dx":0.0017,"nx":28,"ny":28,"refTime":"2025-08-28T03:00:00:Z","depth":0,"parameterNumber":2,"parameterNumberName":"U-component_of_WINDS"},"data":[0,0,0,0,0,0,0,0,0,0,0,0,0,0,0,0,0,0,0,0,0,0,0,0,0,0,0,0,0,0,0,0,0,0,0,0,0,0,0,0,0,0,0,0,0,0,0,0,0,0,0,0,0,0,0,0,0,0,-0.0694,-0.0693,0,-0.0622,-0.0621,-0.062,-0.055,-0.0549,-0.0548,-0.0547,-0.0474,-0.0473,-0.0472,0,0,0,0,0,0,0,0,0,0,0,0,0,-0.0772,-0.0771,-0.0694,-0.0693,-0.0692,-0.0622,-0.0621,-0.062,-0.055,-0.0549,-0.0548,-0.0547,-0.0475,-0.0473,-0.0472,0,0,0,0,0,0,0,0,0,0,0,0,0,-0.0723,-0.0771,-0.0694,-0.0649,-0.0644,-0.0622,-0.0621,-0.062,-0.055,-0.0549,-0.0548,-0.0546,-0.0475,-0.0473,-0.0472,-0.0489,0,0,-0.0467,-0.0466,0,0,0,0,0,0,0,0,-0.0726,-0.072,-0.0657,-0.0652,-0.0647,-0.0594,-0.0622,-0.0576,-0.0551,-0.0586,-0.0547,-0.0546,-0.0515,-0.051,-0.05,-0.0486,-0.0483,-0.0467,-0.0466,-0.0465,-0.0465,0,0,0,0,0,0,0,-0.0729,-0.0723,-0.0666,-0.0656,-0.065,-0.0633,-0.0624,-0.0613,-0.0559,-0.0583,-0.0578,-0.057,-0.0512,-0.0501,-0.0497,-0.0482,-0.0467,-0.0465,-0.0464,-0.0464,-0.0479,-0.048,0,0,0,0,0,0,-0.074,-0.0726,-0.0668,-0.0664,-0.0684,-0.0632,-0.0623,-0.0612,-0.0559,-0.055,-0.0571,-0.0567,-0.0505,-0.0499,-0.0495,-0.0512,-0.0465,-0.0463,-0.0463,-0.0477,-0.0479,-0.048,0,0,0,0,0,0,-0.0742,-0.0735,-0.0671,-0.0693,-0.0684,-0.0632,-0.0621,-0.0611,-0.0601,-0.055,-0.0541,-0.057,-0.0504,-0.0497,-0.0491,-0.0508,-0.0463,-0.0461,-0.0476,-0.0478,-0.048,-0.0546,0,0,0,0,0,0,-0.0744,-0.0736,-0.0742,-0.0694,-0.0683,-0.0669,-0.0622,-0.0611,-0.0598,-0.0592,-0.0547,-0.0538,-0.0502,-0.0494,-0.049,-0.0505,-0.046,-0.0474,-0.0477,-0.0479,-0.0543,-0.0551,-0.0557,0,0,0,0,0,-0.0747,-0.0764,-0.0743,-0.0736,-0.0689,-0.067,-0.0664,-0.0622,-0.0599,-0.0605,-0.0573,-0.0539,-0.0507,-0.0494,-0.0488,-0.0504,-0.0473,-0.0476,-0.0479,-0.0539,-0.0549,-0.0557,0,0,0,0,0,0,-0.0816,-0.0757,-0.0733,-0.0734,-0.0708,-0.0658,-0.0664,-0.0633,-0.0613,-0.0608,-0.0557,-0.0547,-0.0547,-0.0525,-0.0511,-0.0518,-0.0485,-0.0487,-0.0533,-0.0542,-0.0549,-0.0555,-0.0459,0,0,0,0,0,-0.0831,-0.082,-0.0769,-0.0775,-0.0763,-0.0716,-0.0706,-0.0676,-0.0646,-0.0635,-0.0602,-0.0575,-0.0558,-0.0549,-0.0531,-0.0539,-0.0528,-0.0547,-0.0554,-0.056,-0.0563,-0.0566,-0.0574,-0.0491,-0.0491,-0.0491,0,0,-0.0863,-0.0829,-0.0825,-0.0788,-0.0764,-0.0754,-0.0707,-0.0698,-0.069,-0.0633,-0.0626,-0.0601,-0.0567,-0.0569,-0.0568,-0.055,-0.0584,-0.0564,-0.057,-0.0569,-0.057,-0.0578,-0.0585,-0.0493,-0.0492,-0.0492,0,0,-0.0915,-0.0888,-0.0891,-0.0867,-0.0831,-0.08,-0.08,-0.0755,-0.0737,-0.0728,-0.0685,-0.0675,-0.0648,-0.0626,-0.0611,-0.0655,-0.0624,-0.0651,-0.069,-0.0694,-0.07,-0.0706,-0.0722,-0.0728,-0.0653,-0.0654,-0.0654,0,-0.0959,-0.0942,-0.0896,-0.089,-0.0875,-0.0823,-0.0825,-0.0805,-0.0765,-0.0756,-0.0737,-0.0702,-0.0675,-0.0671,-0.0682,-0.0671,-0.0671,-0.0656,-0.0703,-0.0708,-0.0712,-0.0727,-0.0734,-0.0657,-0.0657,-0.0656,-0.0656,0,-0.0998,-0.0987,-0.0993,-0.0956,-0.0941,-0.094,-0.0894,-0.0885,-0.0857,-0.0828,-0.082,-0.0786,-0.0761,-0.0757,-0.0729,-0.0749,-0.0739,-0.0712,-0.0678,-0.0725,-0.0738,-0.0743,-0.0662,-0.0661,-0.066,-0.0659,0,0,-0.1092,-0.1029,-0.1032,-0.1015,-0.0971,-0.0962,-0.0958,-0.0932,-0.0926,-0.09,-0.0896,-0.0874,-0.0849,-0.0832,-0.0801,-0.0804,-0.0842,-0.0776,-0.0774,-0.079,-0.0862,-0.0884,-0.0891,-0.082,-0.0821,-0.0822,-0.0865,0,-0.1138,-0.1127,-0.1086,-0.1088,-0.1077,-0.1027,-0.1024,-0.0997,-0.0969,-0.0956,-0.0926,-0.0912,-0.0879,-0.0868,-0.0869,-0.0837,-0.0856,-0.0833,-0.0816,-0.0816,-0.0827,-0.0898,-0.092,-0.0963,-0.087,-0.0871,-0.0872,0,-0.1189,-0.1167,-0.1168,-0.1124,-0.1118,-0.1116,-0.109,-0.1078,-0.1046,-0.1026,-0.1008,-0.0973,-0.0966,-0.0934,-0.0924,-0.091,-0.0901,-0.0884,-0.0884,-0.0882,-0.0847,-0.0898,-0.0976,-0.0982,-0.0879,-0.0879,-0.0878,0,-0.1259,-0.1229,-0.1225,-0.1212,-0.1161,-0.116,-0.1139,-0.1106,-0.1094,-0.1071,-0.1062,-0.1039,-0.1027,-0.101,-0.097,-0.095,-0.0965,-0.0929,-0.0949,-0.095,-0.0955,-0.0955,-0.1033,-0.0948,-0.0947,-0.0947,-0.0947,0,-0.1315,-0.1317,-0.1256,-0.1254,-0.1256,-0.1208,-0.1211,-0.1185,-0.1156,-0.1149,-0.1104,-0.1098,-0.1045,-0.1033,-0.1001,-0.0999,-0.0993,-0.0977,-0.0969,-0.0981,-0.0984,-0.0975,-0.0971,-0.0949,-0.0949,-0.0948,-0.0948,0,-0.1393,-0.1352,-0.1345,-0.1297,-0.1285,-0.1289,-0.1248,-0.1244,-0.1214,-0.1205,-0.12,-0.1153,-0.1136,-0.1094,-0.1067,-0.1046,-0.1052,-0.1036,-0.1063,-0.1058,-0.1079,-0.1078,-0.1155,-0.1163,-0.1072,-0.1073,-0.1074,0,-0.1432,-0.1432,-0.1385,-0.1376,-0.1357,-0.1344,-0.1331,-0.1284,-0.1273,-0.1237,-0.1238,-0.1218,-0.1199,-0.1175,-0.1139,-0.1118,-0.1101,-0.113,-0.1098,-0.1111,-0.1103,-0.1103,-0.1104,-0.1137,-0.1138,-0.1139,-0.114,0,-0.1505,-0.1484,-0.1467,-0.1443,-0.1429,-0.1408,-0.1385,-0.138,-0.1328,-0.1317,-0.13,-0.1285,-0.1257,-0.1238,-0.1211,-0.119,-0.1157,-0.115,-0.1154,-0.1167,-0.1183,-0.1175,-0.1083,-0.1149,-0.1148,-0.1147,-0.1147,-0.1146,-0.1565,-0.1563,-0.153,-0.1512,-0.1489,-0.1469,-0.1463,-0.1432,-0.1416,-0.139,-0.1363,-0.1349,-0.1317,-0.1277,-0.1258,-0.1246,-0.1229,-0.1234,-0.1235,-0.1237,-0.1243,-0.1184,-0.1241,-0.1241,-0.1241,-0.124,-0.124,0,-0.1636,-0.1612,-0.1596,-0.1565,-0.1551,-0.152,-0.1493,-0.1484,-0.1471,-0.1444,-0.1427,-0.1407,-0.1389,-0.135,-0.1328,-0.1326,-0.131,-0.1322,-0.1322,-0.1318,-0.126,-0.1259,-0.1335,-0.1335,-0.1335,-0.1335,-0.1335,-0.1335,-0.1672,-0.1668,-0.1644,-0.1628,-0.1604,-0.1589,-0.1576,-0.1557,-0.1535,-0.1515,-0.1499,-0.1474,-0.1442,-0.1418,-0.1399,-0.1388,-0.1383,-0.1399,-0.1384,-0.1331,-0.1322,-0.1313,-0.1313,-0.1398,-0.1398,-0.1443,-0.1443,-0.1444]},{"header":{"parameterUnit":"m.s-1","parameterCategory":1,"la1":30.2991,"la2":30.254,"lo1":-89.0895,"lo2":-89.0444,"dy":0.0017,"dx":0.0017,"nx":28,"ny":28,"refTime":"2025-08-28T03:00:00:Z","depth":0,"parameterNumber":3,"parameterNumberName":"V-component_of_WINDS"},"data":[0,0,0,0,0,0,0,0,0,0,0,0,0,0,0,0,0,0,0,0,0,0,0,0,0,0,0,0,0,0,0,0,0,0,0,0,0,0,0,0,0,0,0,0,0,0,0,0,0,0,0,0,0,0,0,0,0,0,0.7392,0.7392,0,0.732,0.7319,0.7319,0.7295,0.7295,0.7296,0.7296,0.7218,0.7216,0.7213,0,0,0,0,0,0,0,0,0,0,0,0,0,0.7506,0.7504,0.7392,0.7391,0.7391,0.732,0.7319,0.7318,0.7295,0.7295,0.7296,0.7296,0.7219,0.7216,0.7213,0,0,0,0,0,0,0,0,0,0,0,0,0,0.7448,0.7504,0.7393,0.7371,0.7368,0.7321,0.7319,0.7318,0.7295,0.7295,0.7296,0.7296,0.722,0.7216,0.7213,0.7181,0,0,0.7202,0.72,0,0,0,0,0,0,0,0,0.7451,0.7443,0.7375,0.7372,0.7369,0.7317,0.7331,0.7272,0.7295,0.7323,0.7296,0.7297,0.725,0.7244,0.723,0.7177,0.7174,0.7201,0.7199,0.7198,0.7197,0,0,0,0,0,0,0,0.7455,0.7446,0.7364,0.7374,0.737,0.7363,0.7355,0.732,0.7284,0.732,0.7318,0.731,0.7249,0.7233,0.7228,0.7173,0.7202,0.7198,0.7196,0.7195,0.709,0.7089,0,0,0,0,0,0,0.7463,0.745,0.7366,0.7362,0.7412,0.7361,0.7352,0.7333,0.7285,0.7278,0.731,0.7309,0.7239,0.7232,0.7225,0.7184,0.7198,0.7194,0.7192,0.709,0.709,0.7089,0,0,0,0,0,0,0.7466,0.7456,0.7369,0.7405,0.7394,0.7358,0.7337,0.7332,0.7316,0.7277,0.727,0.7301,0.7239,0.723,0.7192,0.7181,0.7193,0.719,0.7091,0.709,0.7089,0.7102,0,0,0,0,0,0,0.7469,0.7457,0.7445,0.7405,0.7392,0.7339,0.7337,0.733,0.731,0.7309,0.7266,0.726,0.7239,0.7198,0.7189,0.7176,0.7187,0.7092,0.7091,0.709,0.7102,0.7101,0.7101,0,0,0,0,0,0.7473,0.7451,0.7445,0.7435,0.7377,0.7338,0.733,0.7308,0.7309,0.7297,0.7272,0.7261,0.7184,0.7194,0.7183,0.717,0.7093,0.7091,0.709,0.7102,0.7101,0.7101,0,0,0,0,0,0,0.7489,0.7445,0.7438,0.7402,0.7374,0.7334,0.7317,0.7307,0.7277,0.7277,0.7249,0.7239,0.7204,0.7183,0.7195,0.7136,0.7137,0.7134,0.7151,0.7149,0.7149,0.7154,0.7184,0,0,0,0,0,0.7489,0.7463,0.7425,0.7397,0.7383,0.7353,0.7335,0.732,0.729,0.7277,0.725,0.7219,0.7188,0.7168,0.7137,0.7099,0.7089,0.7085,0.7084,0.7084,0.708,0.7059,0.7056,0.7084,0.7084,0.7084,0,0,0.7487,0.746,0.7445,0.7399,0.7376,0.7348,0.7343,0.7314,0.7292,0.7272,0.7235,0.7214,0.7178,0.714,0.7122,0.7122,0.7071,0.7082,0.7082,0.7079,0.7057,0.7054,0.7052,0.7083,0.7083,0.7083,0,0,0.747,0.7447,0.7421,0.7398,0.7363,0.7343,0.7337,0.7299,0.7284,0.7247,0.7231,0.7205,0.7152,0.7127,0.7107,0.7081,0.707,0.7072,0.7067,0.7046,0.7044,0.7042,0.7032,0.7029,0.7069,0.7069,0.7069,0,0.7472,0.743,0.7409,0.738,0.736,0.7343,0.7316,0.7294,0.725,0.7236,0.7237,0.717,0.7144,0.7101,0.7095,0.7079,0.707,0.7076,0.7047,0.7044,0.7042,0.7032,0.7028,0.7069,0.7069,0.7069,0.7069,0,0.7434,0.7406,0.7389,0.7348,0.7327,0.7299,0.7272,0.7253,0.724,0.722,0.7182,0.7151,0.7113,0.7102,0.7088,0.7056,0.7057,0.7052,0.7053,0.704,0.703,0.7026,0.707,0.707,0.707,0.707,0,0,0.7424,0.7373,0.7367,0.7348,0.7309,0.7286,0.7257,0.7222,0.7205,0.7176,0.715,0.7106,0.7102,0.708,0.7063,0.7045,0.7026,0.7043,0.7042,0.704,0.6988,0.6991,0.6987,0.7019,0.7018,0.7018,0.6991,0,0.7401,0.735,0.733,0.7288,0.7261,0.7245,0.7219,0.7192,0.7172,0.7145,0.7123,0.7092,0.709,0.7076,0.7057,0.7033,0.7015,0.7034,0.6994,0.6992,0.7003,0.6982,0.6985,0.6961,0.6987,0.6986,0.6986,0,0.7367,0.7339,0.7295,0.7259,0.7247,0.7225,0.7191,0.7166,0.7134,0.7121,0.7097,0.7082,0.705,0.7054,0.7009,0.7022,0.7005,0.699,0.6988,0.6983,0.6988,0.6975,0.6953,0.6949,0.6979,0.698,0.698,0,0.7364,0.7314,0.7282,0.7267,0.7224,0.7209,0.719,0.7159,0.7139,0.7109,0.7096,0.7062,0.7043,0.7017,0.6993,0.6998,0.695,0.6951,0.6937,0.6937,0.6927,0.6928,0.6901,0.6917,0.6917,0.6917,0.6917,0,0.734,0.7313,0.728,0.726,0.7229,0.7206,0.7176,0.7156,0.7129,0.7104,0.7087,0.7063,0.7033,0.7005,0.6986,0.6951,0.6943,0.6931,0.6926,0.6932,0.6933,0.6919,0.692,0.6916,0.6916,0.6916,0.6916,0,0.733,0.7307,0.727,0.7233,0.7223,0.7203,0.717,0.7149,0.713,0.7098,0.7089,0.7057,0.7024,0.6997,0.6953,0.694,0.6903,0.6898,0.6915,0.6912,0.6899,0.69,0.6861,0.6854,0.6876,0.6876,0.6875,0,0.7316,0.7296,0.7257,0.724,0.7222,0.7194,0.7174,0.715,0.7129,0.7092,0.7075,0.7041,0.7012,0.6959,0.6931,0.6898,0.6891,0.688,0.6886,0.6892,0.689,0.6891,0.6889,0.6879,0.6878,0.6878,0.6878,0,0.7294,0.7283,0.7256,0.7225,0.7202,0.7175,0.7149,0.7135,0.7106,0.7084,0.705,0.7028,0.6984,0.695,0.6913,0.6892,0.688,0.6877,0.6872,0.6877,0.6887,0.6881,0.6912,0.6878,0.6878,0.6878,0.6878,0.6878,0.7281,0.7262,0.7232,0.7202,0.718,0.7155,0.7134,0.7112,0.7084,0.7047,0.7034,0.7,0.6968,0.6918,0.6897,0.6868,0.6867,0.686,0.6858,0.6856,0.6857,0.6893,0.6861,0.6861,0.6861,0.6861,0.6861,0,0.7257,0.7237,0.721,0.7174,0.715,0.7143,0.7113,0.7093,0.7063,0.7035,0.7008,0.6969,0.6935,0.6905,0.687,0.6853,0.6847,0.6845,0.6845,0.6841,0.686,0.6867,0.6851,0.6851,0.6851,0.6851,0.6851,0.6851,0.7242,0.7209,0.7196,0.7151,0.7131,0.7098,0.7082,0.7059,0.7036,0.6994,0.6967,0.6948,0.6919,0.6882,0.6851,0.6843,0.683,0.683,0.682,0.6838,0.6839,0.6841,0.6848,0.6828,0.6828,0.6804,0.6803,0.6803]}]]